Regional Weather Roundup
Issued by NWS

Home | Current Version | Previous Version | Graphics & Text | Print | Product List | Glossary Off
Versions: 1 2 3 4 5 6 7 8 9 10 11 12 13 14 15 16 17 18 19 20 21 22 23 24 25 26 27 28 29 30 31 32 33 34 35 36 37 38 39 40 41 42 43 44 45 46 47 48 49 50

000
ASUS43 KMPX 201201
RWRMN
WEATHER ROUNDUP FOR MINNESOTA
NATIONAL WEATHER SERVICE TWIN CITIES/CHANHASSEN MN
700 AM CDT FRI OCT 20 2017


NOTE: "FAIR" INDICATES FEW OR NO CLOUDS BELOW 12,000 FEET WITH NO
SIGNIFICANT WEATHER AND/OR OBSTRUCTIONS TO VISIBILITY. N/A MEANS
CURRENT SKY AND/OR WEATHER CONDITIONS ARE NOT AVAILABLE.

MNZ060>063-068>070-201300-
   Twin Cities Metro

CITY           SKY/WX    TMP DP  RH WIND       PRES   REMARKS
TWIN CITIES    FAIR      54  50  86 SE8       29.89S
6HR MIN TEMP:  53; 6HR MAX TEMP:  56;

ST PAUL        FAIR      52  50  93 SE6       29.91S
CRYSTAL        FAIR      52  46  80 SE5       29.87S
BLAINE         CLEAR     54  50  87 SE8       29.88S
LAKEVILLE      FAIR      52  48  87 S3        29.90S
EDEN PRAIRIE   FAIR      58  50  75 S12       29.88S
6HR MIN TEMP:  57; 6HR MAX TEMP:  60;

SOUTH ST PAUL  FAIR      53  49  87 SE3       29.90S
LAKE ELMO      FAIR      54  50  87 S7        29.91S
$$
MNZ001>005-007-008-013>017-022>024-027-028-201300-
   Northwest Minnesota

CITY           SKY/WX    TMP DP  RH WIND       PRES   REMARKS
BEMIDJI        FAIR      47  44  90 SE3       29.72F
HALLOCK        FAIR      46  43  87 SE10      29.60S
ROSEAU         FAIR      52  45  76 S8        29.64F
WARROAD        FAIR      52  45  76 S7        29.66S
CROOKSTON      FAIR      52  46  82 S10       29.63S
FOSSTON        FAIR      57  46  67 SE8       29.67F
DETROIT LAKES  FAIR      52  48  87 S8        29.71S
MOORHEAD       FAIR      55  48  76 SE17      29.64F
PARK RAPIDS    FAIR      49  45  86 SE7       29.73F
MAHNOMEN       FAIR      58  48  68 S9        29.66F
$$
MNZ006-009>011-018-025>026-201300-
   North Central Minnesota

CITY           SKY/WX    TMP DP  RH WIND       PRES   REMARKS
BAUDETTE       FAIR      46  42  86 SE5       29.70F
FLAG ISLAND    FAIR      50  45  81 E3        29.67S
INTL FALLS     FAIR      45  39  79 SE6       29.75F
6HR MIN TEMP:  42; 6HR MAX TEMP:  54;

WASKISH        FAIR      52  46  82 SE7       29.71S
BIG FORK       FAIR      50  43  76 SE3       29.76F
LONGVILLE      FAIR      50  46  87 SE5       29.77S
GRAND RAPIDS   FAIR      50  44  80 SE9       29.80F
CRANE LAKE     FAIR      48  41  76 S3        29.80F
ORR            FAIR      50  39  66 SE3       29.77S
COOK           FAIR      50  43  76 SE3       29.81S
WALKER         FAIR      53  46  79 SE8       29.74S
$$
MNZ012-019>021-037-201300-
   Northeast Minnesota

CITY           SKY/WX    TMP DP  RH WIND       PRES   REMARKS
DULUTH         FAIR      50  46  86 S8        29.85F
6HR MIN TEMP:  50; 6HR MAX TEMP:  57;

ELY            FAIR      48  39  71 S3        29.83S
HIBBING        FAIR      34  33  96 CALM      29.82F
EVELETH        FAIR      37  37 100 CALM      29.84F
DULUTH HARBOR  FAIR      50  46  87 CALM      29.86S
TWO HARBORS    FAIR      41  37  87 CALM      29.85S
SILVER BAY     FAIR      36  34  93 CALM      29.85S
GRAND MARAIS     N/A     42  39  89 CALM      29.87F
G MARAIS ARPRT FAIR      37  30  75 CALM      29.88S
$$
MNZ029>031-032-039>041-046>048-054>057-064-201300-
   West Central Minnesota

CITY           SKY/WX    TMP DP  RH WIND       PRES   REMARKS
FERGUS FALLS   FAIR      55  48  76 S13       29.71S
WHEATON        FAIR      54  46  76 SE13      29.70F
MORRIS         FAIR      52  48  87 SE10      29.74S
ALEXANDRIA     FAIR      57  48  72 S10       29.77F
ELBOW LAKE     FAIR      53  48  85 SE14      29.73S
WADENA         FAIR      52  46  82 S7        29.74S
GLENWOOD       FAIR      55  48  76 S12       29.79S
APPLETON       FAIR      55  48  76 SE8       29.75S
BENSON         FAIR      54  48  82 S9        29.78S
ORTONVILLE     FAIR      52  46  82 NE8       29.72F
MADISON        FAIR      63  48  59 S12G17    29.75S
WILLMAR        FAIR      54  48  82 SE7       29.82S
$$
MNZ033>034-036-042>043-049>051-058-059-201300-
   Central Minnesota

CITY           SKY/WX    TMP DP  RH WIND       PRES   REMARKS
ST CLOUD       FAIR      49  48  97 SE9       29.83F
6HR MIN TEMP:  48; 6HR MAX TEMP:  53;

SAUK CENTRE    FAIR      50  47  89 SE8       29.79F
PAYNESVILLE    FAIR      55  49  81 S12       29.82S
AITKIN         FAIR      52  46  82 S8        29.79F
PINE RIVER     FAIR      46  43  87 S6        29.81S
BRAINERD       FAIR      53  48  83 S10       29.80S
STAPLES        FAIR      52  46  82 S8        29.76F
LONG PRAIRIE   FAIR      50  46  87 SE9       29.79S
LITTLE FALLS   FAIR      50  43  76 SE5       29.81S
LITCHFIELD     FAIR      55  50  82 CALM      29.84S
BUFFALO        FAIR      56  48  76 S5        29.86S
MAPLE LAKE     FAIR      54  51  87 S6        29.85F
HUTCHINSON     FAIR      53  49  89 S5        29.86S
$$
MNZ037-044-045-052-053-201300-
   East Central Minnesota

CITY           SKY/WX    TMP DP  RH WIND       PRES   REMARKS
PRINCETON      FAIR      52  48  87 SE6       29.85S
MORA           FAIR      46  45  93 SE3       29.87S
CAMBRIDGE      FAIR      55  46  71 S8        29.86S
RUSH CITY      MOCLDY    52  47  84 S6        29.87F
MOOSE LAKE     FAIR      50  45  81 S5        29.84S
HINCKLEY       FAIR      50  46  87 SE3       29.86S
CLOQUET        FAIR      52  45  76 S5        29.85S
MCGREGOR       FAIR      50  45  81 S7        29.82F
$$
MNZ071>073-080-081-089-090-097-098-201300-
   Southwest Minnesota

CITY           SKY/WX    TMP DP  RH WIND       PRES   REMARKS
MONTEVIDEO     FAIR      55  48  76 SW8       29.78S
GRANITE FALLS  FAIR      56  49  77 S9        29.81F
CANBY          FAIR      61  48  62 S12G17    29.77S
MARSHALL       FAIR      59  48  67 S18       29.79F
REDWOOD FALLS  FAIR      57  47  69 S12       29.83S
OLIVIA         FAIR      54  46  76 S8        29.82S
PIPESTONE      FAIR      52  46  82 S13       29.83S
WORTHINGTON    FAIR      56  48  74 S14G20    29.88S
JACKSON        FAIR      54  46  76 S10       29.90F
TRACY          FAIR      59  50  70 S17       29.83S
SLAYTON        FAIR      56  48  74 S15       29.85F
$$
MNZ065>067-074>077-082>085-091>093-201300-
   South Central Minnesota

CITY           SKY/WX    TMP DP  RH WIND       PRES   REMARKS
MANKATO        FAIR      56  49  77 S10       29.91S
NEW ULM          N/A     52  46  82 S13       29.87S
ST JAMES       FAIR      55  48  76 S13       29.89S
FAIRMONT       FAIR      54  49  83 S15       29.92
GLENCOE        FAIR      55  49  80 S6        29.86S
FARIBAULT      FAIR      54  48  82 S6        29.93S
OWATONNA       FAIR      55  48  76 S14       29.94R
WASECA         FAIR      54  48  82 S9        29.94S
$$
MNZ078>079-086>088-094>096-201300-
   Southeast Minnesota

CITY           SKY/WX    TMP DP  RH WIND       PRES   REMARKS
ROCHESTER      FAIR      54  50  86 S15       29.99R
6HR MIN TEMP:  52; 6HR MAX TEMP:  55;

RED WING       FAIR      55  46  71 SE6       29.93S
STANTON        FAIR      56  49  78 S8        29.91S
DODGE CENTER   FAIR      54  48  82 S13       29.96S
WINONA         FAIR      55  50  82 SE5       29.99S
AUSTIN         FAIR      52  46  82 S7        29.98S
PRESTON        FAIR      53  48  84 S13       30.01S
$$
ABBREVIATIONS USED IN REMARKS
   TC - TEMPERATURES IN CELSIUS
  WCI - WIND CHILL INDEX
   HX - HEAT INDEX
  VSB - VISIBILITY
$$




USA.gov is the U.S. government's official web portal to all federal, state and local government web resources and services.